Printer-friendly version

IAU Minor Planet Center

Minor Planet Center

(51) Nemausa

Orbital Elements

The following orbital elements are taken from MPC 31001:
   (51) Nemausa
Epoch 2003 Dec. 27.0 TT = JDT 2453000.5                 Goffin
M  19.05377              (2000.0)            P               Q
n   0.27090013     Peri.    2.46224     -0.99967429     -0.02275814
a   2.3655379      Node   176.17601     +0.01943865     -0.97222398
e   0.0668679      Incl.    9.97201     +0.01653622     -0.23294334
P   3.64           H    7.35          G   0.08           U   0
From 3595 observations at 87 oppositions, 1858-1997, mean residual 0".52.
An explanation of the orbital elements is available.

These orbital elements are also available in forms suitable for loading into a number of popular planetarium-type software programs.


Ephemeris

The following ephemeris is at intervals of five days. A daily ephemeris covering the same time interval is also available.

Date    TT    R. A. (2000) Decl.     Delta      r     Elong.  Phase     V
 
2004 02 25    16 16.47   -13 37.9    1.993    2.240    91.0    26.2    11.9
2004 03 01    16 22.54   -13 25.3    1.935    2.243    94.6    26.1    11.8
2004 03 06    16 28.11   -13 09.5    1.877    2.245    98.2    25.9    11.8
2004 03 11    16 33.16   -12 50.5    1.821    2.248   102.0    25.6    11.7
2004 03 16    16 37.63   -12 28.5    1.765    2.251   105.8    25.2    11.6
2004 03 21    16 41.47   -12 03.6    1.711    2.253   109.8    24.6    11.5
2004 03 26    16 44.64   -11 35.9    1.659    2.256   114.0    23.8    11.4
2004 03 31    16 47.10   -11 05.7    1.608    2.259   118.2    22.9    11.3
2004 04 05    16 48.82   -10 33.3    1.560    2.262   122.6    21.9    11.2
2004 04 10    16 49.78   -09 59.1    1.515    2.265   127.1    20.7    11.1
2004 04 15    16 49.94   -09 23.3    1.473    2.268   131.7    19.3    11.0
2004 04 20    16 49.29   -08 46.4    1.435    2.271   136.4    17.8    10.9
2004 04 25    16 47.86   -08 09.2    1.401    2.274   141.2    16.1    10.8
2004 04 30    16 45.67   -07 32.2    1.371    2.277   146.0    14.3    10.7
2004 05 05    16 42.79   -06 56.2    1.347    2.281   150.7    12.5    10.6
2004 05 10    16 39.30   -06 22.0    1.328    2.284   155.2    10.7    10.5
2004 05 15    16 35.30   -05 50.3    1.314    2.287   159.1     9.1    10.4
2004 05 20    16 30.93   -05 22.0    1.306    2.291   162.1     7.8    10.3
2004 05 25    16 26.32   -04 57.7    1.305    2.294   163.4     7.2    10.3
2004 05 30    16 21.65   -04 38.2    1.309    2.297   162.8     7.5    10.3
2004 06 04    16 17.07   -04 23.9    1.320    2.301   160.4     8.5    10.4
2004 06 09    16 12.74   -04 15.0    1.336    2.304   156.8    10.0    10.5
2004 06 14    16 08.77   -04 11.5    1.359    2.308   152.6    11.7    10.6
2004 06 19    16 05.29   -04 13.6    1.386    2.312   148.0    13.5    10.7
2004 06 24    16 02.39   -04 20.8    1.419    2.315   143.4    15.2    10.9
2004 06 29    16 00.15   -04 32.9    1.456    2.319   138.7    16.8    11.0
2004 07 04    15 58.59   -04 49.4    1.497    2.322   134.1    18.3    11.1
2004 07 09    15 57.74   -05 09.8    1.542    2.326   129.6    19.7    11.2
2004 07 14    15 57.60   -05 33.6    1.590    2.330   125.2    20.9    11.3
2004 07 19    15 58.16   -06 00.2    1.642    2.333   121.0    21.9    11.4
2004 07 24    15 59.41   -06 29.3    1.696    2.337   116.8    22.8    11.5
2004 07 29    16 01.31   -07 00.3    1.752    2.341   112.8    23.6    11.6
2004 08 03    16 03.84   -07 32.7    1.810    2.345   109.0    24.2    11.7
2004 08 08    16 06.96   -08 06.1    1.869    2.348   105.2    24.6    11.8
2004 08 13    16 10.62   -08 40.2    1.930    2.352   101.5    25.0    11.9

Back to Bright Minor Planets

Astronomical Headlines Index


Valid HTML 4.01!